Regional Weather Roundup
Issued by NWS

Home | Current Version | Previous Version | Text Only | Print | Product List | Glossary Off
Versions: 1 2 3 4 5 6 7 8 9 10 11 12 13 14 15 16 17 18 19 20 21 22 23 24 25 26 27 28 29 30 31 32 33 34 35 36 37 38 39 40 41 42 43 44 45 46 47 48 49 50

000
ASUS43 KLOT 170358
RWRIL

ILLINOIS REGIONAL WEATHER ROUNDUP
NATIONAL WEATHER SERVICE CHICAGO/ROMEOVILLE IL
1100 PM CDT TUE SEP 16 2014

NOTE: "FAIR" INDICATES FEW OR NO CLOUDS BELOW 12,000 FEET WITH NO
SIGNIFICANT WEATHER AND/OR OBSTRUCTIONS TO VISIBILITY.

* THESE STATIONS ARE NOT UNDER NWS QUALITY CONTROL. THEY ALSO MAY NOT
  REPORT WEATHER SUCH AS PRECIPITATION OR FOG.

ILZ001-002-007-009-015-016-024-170500-
NORTHWEST ILLINOIS

CITY           SKY/WX    TMP DP  RH WIND       PRES   REMARKS
MOLINE         CLEAR     48  44  86 CALM      30.09S
$$

ILZ003-004-008-010-011-017-018-170500-
NORTH CENTRAL ILLINOIS

CITY           SKY/WX    TMP DP  RH WIND       PRES   REMARKS
ROCKFORD       NOT AVBL
$$

ILZ005-006-012>014-019>023-170500-
NORTHEAST ILLINOIS

CITY           SKY/WX    TMP DP  RH WIND       PRES   REMARKS
CHICAGO-OHARE  CLEAR     55  47  74 SE3       30.09F
CHICAGO-MIDWAY CLEAR     58  50  75 E3        30.09F
AURORA         CLEAR     45  42  89 CALM      30.10S
WAUKEGAN       CLEAR     45  43  93 CALM      30.09S
DUPAGE AIRPORT CLEAR     48  43  82 CALM      30.09S
WHEELING       CLEAR     52  47  83 CALM      30.11S
NORTHERLY ISL    N/A     56  52  86 CALM        N/A
$$

LMZ740>746-170500-
SOUTHERN LAKE MICHIGAN

STATION/POSITION SKY/WX   TEMP    WIND        PRES    VSBY  WAVE
                          AIR SEA DIR/SP/G                  HT/PER
                          (F)     (DEG/KT/KT) (MB)    (MI)  (FT/S)
SOUTHERN BUOY              59 64  190/  6/  6 1019.3F         1
WAUKEGAN HARBOR            56     240/  3/  4   N/A
HARRISON CRIB              60      90/  6/  7   N/A
BURNHAM HARBOR             57      CALM  /  3   N/A
CALUMET HARBOR             57      CALM  /  1 1017.9S
MICHIGAN CITY              56      90/  6/  9   N/A
MICHIGAN CITY 6N           58 65  110/  8/ 10   N/A           1/ 4
ST. JOSEPH                 59 66  110/  6/  8   N/A           1/ 4
$$

ILZ025>027-034>036-040-047-049-050-058-095>099-170500-
WEST-CENTRAL ILLINOIS

CITY           SKY/WX    TMP DP  RH WIND       PRES   REMARKS
$$

ILZ028>032-037-038-041>044-048-051>054-059>061-170500-
CENTRAL ILLINOIS

CITY           SKY/WX    TMP DP  RH WIND       PRES   REMARKS
PEORIA         NOT AVBL
SPRINGFIELD    CLEAR     50  47  89 N3        30.10S
TAYLORVILLE    NOT AVBL
$$

ILZ033-039-045-046-055>057-062-063-170500-
EAST-CENTRAL ILLINOIS

CITY           SKY/WX    TMP DP  RH WIND       PRES   REMARKS
CHAMPAIGN      CLEAR     49  46  90 NE3       30.11R
$$

ILZ079-100>102-170500-
SOUTHWEST ILLINOIS

CITY           SKY/WX    TMP DP  RH WIND       PRES   REMARKS
CAHOKIA*       CLEAR     51  50  96 CALM      30.10S FOG
$$

ILZ064>066-069>071-074>076-080>082-084>086-088>090-092>094-170500-
SOUTH-CENTRAL ILLINOIS

CITY           SKY/WX    TMP DP  RH WIND       PRES   REMARKS
CARBONDALE     CLEAR     49  47  93 E3        30.11S FOG
$$

ILZ067-068-072-073-078-083-087-091-170500-
SOUTHEAST ILLINOIS

CITY           SKY/WX    TMP DP  RH WIND       PRES   REMARKS
$$

ABBREVIATIONS USED IN REMARKS
   TC - TEMPERATURE IN CELSIUS
  WCI - WIND CHILL INDEX
   HX - HEAT INDEX
  VSB - VISIBILITY
$$



USA.gov is the U.S. government's official web portal to all federal, state and local government web resources and services.